SL-16 R/B (23405 NORAD) Tracking and Keplerian Element Data

This shows tracking and keplerian element data for the satellite.

Feedback or suggestion? Click here.




ElementValue
Catalog23405
NameSL-16 R/B
Epoch Orbit24765
Epoch Day20.55871515
Epoch Year2019
RAAN70.9607
Inclination70.9819
Eccentricity0.0002975
Argument of Perigee211.0889
Mean Anonmoly149.0058
Mean Motion14.15205844
Decay Rate-2.84E-06
L11 23405U 94077B 19020.55871515 -.00000284 00000-0 -12152-3 0 9990
L22 23405 70.9819 70.9607 0002975 211.0889 149.0058 14.15205844247656

Live tracking and technical data element details for SL-16 R/B (NORAD 23405). SL-16 R/B can be tracked NOW for your location showing map with azimuth and elevation plus other details from your city location.

Track the satellite on the map from your city or location and see movement details for azimuth, elevation, latitude, longitude, range, height, and movement on the map or in text.







IsCatalogInMostPopularTable: catalog: 23405, numindb: 45
Update: records affected: 1



GetName: 23405 SL-16 R/B

Hit Count: updated at: Mon, 21 Jan 2019 18:09:10 GMT